Regional Weather Roundup
Issued by NWS Albany, NY

Home | Current Version | Previous Version | Text Only | Print | Product List | Glossary On
Versions: 1 2 3 4 5 6 7 8 9 10 11 12 13 14 15 16 17 18 19 20 21 22 23 24 25 26 27
000
ASUS41 KALY 301710
RWRALY

NEW YORK STATE HOURLY WEATHER ROUNDUP
NATIONAL WEATHER SERVICE ALBANY NY
100 PM EDT FRI SEP 30 2016

NOTE: "FAIR" INDICATES FEW OR NO CLOUDS BELOW 12,000 FEET WITH NO
SIGNIFICANT WEATHER AND/OR NO OBSTRUCTIONS TO VISIBILITY.

NYZ032-033-038>043-046>054-057>066-NYZ062>081-082-084-301800-
EAST


CITY           SKY/WX    TMP DP  RH WIND       PRES   REMARKS
ALBANY         PTSUNNY   63  44  50 NE9       30.41F
GLENS FALLS    CLOUDY    62  41  46 N8        30.43F
POUGHKEEPSIE   CLOUDY    62  49  62 NE14G24   30.33F
NEWBURGH       CLOUDY    61  52  72 E12G21    30.35F
MONTGOMERY     LGT RAIN  59  53  80 NE14G22   30.32F
WHITE PLAINS   DRIZZLE   58  54  86 NE10G17   30.30S
ISLIP          LGT RAIN  60  58  92 NE15G24   30.28F FOG
NEW YORK CITY  LGT RAIN  63  59  87 NE22G30   30.28F FOG
CENTRAL PARK   LGT RAIN  59  56  89 NE13G20   30.31S FOG
$$

NYZ005>009-017-018-044>046-055-056-301800-
CENTRAL


CITY           SKY/WX    TMP DP  RH WIND       PRES   REMARKS
FULTON         CLOUDY    57  45  64 VRB5G20   30.37S
SYRACUSE       LGT RAIN  55  47  75 E7        30.37S
ROME           LGT RAIN  59  46  62 SE7       30.40F
ELMIRA         CLOUDY    60  50  69 E8        30.31F
BINGHAMTON     CLOUDY    50  48  93 E10       30.34S
MONTICELLO     CLOUDY    50  48  93 NE10G17   30.35F
$$

NYZ026>034-041>043-087-301800-
NORTH


CITY           SKY/WX    TMP DP  RH WIND       PRES   REMARKS
WATERTOWN      PTSUNNY   61  44  53 NE13      30.38F
FORT DRUM      NOT AVBL
OGDENSBURG       N/A     61  52  73 N9        30.42F
MASSENA        CLOUDY    61  49  64 NE13      30.44F
SARANAC LAKE   PTSUNNY   58  37  45 NE9       30.41F
PLATTSBURGH    MOSUNNY   62  41  46 E6        30.46F
$$

NYZ001>004-010>016-019>021-085-301800-
WEST


CITY           SKY/WX    TMP DP  RH WIND       PRES   REMARKS
NIAGARA FALLS  CLOUDY    64  50  60 E15G21    30.27F
BUFFALO        PTSUNNY   63  50  62 E16       30.27F
DUNKIRK        CLOUDY    67  59  75 NE12      30.21F
JAMESTOWN      CLOUDY    61  55  82 SE10G17   30.23F
WELLSVILLE     CLOUDY    56  52  86 E8        30.30F
ROCHESTER      CLOUDY    62  46  55 E15       30.33F
PENN YAN       CLOUDY    59  45  59 VRB6      30.35F
$$

             KEY
       WCI = WIND CHILL INDEX
       VSB = VISIBILITY
       HX  = HEAT INDEX
$$




USA.gov is the U.S. government's official web portal to all federal, state and local government web resources and services.